Miscellaneous Local Product
Issued by NWS Hastings, NE

Home | Current Version | Previous Version | Graphics & Text | Print | Product List | Glossary On
Versions: 1 2 3 4 5 6 7 8 9 10 11 12 13 14 15 16 17 18 19 20 21 22 23 24 25 26 27 28 29 30 31 32 33 34 35 36 37 38 39 40 41 42 43 44 45 46 47 48 49 50
576
AXUS43 KGID 290302
MISGRI

GID CWA HOURLY WEATHER ROUNDUP
NATIONAL WEATHER SERVICE HASTINGS NE
1000 PM CDT THU JUL 28 2016

NOTE: "FAIR" INDICATES FEW OR NO CLOUDS BELOW 12,000 FEET WITH NO
SIGNIFICANT WEATHER AND/OR OBSTRUCTIONS TO VISIBILITY.

...SOUTH CENTRAL NEBRASKA...

CITY           SKY/WX    TMP DP  RH WIND       PRES   REMARKS
GRAND ISLAND   PTCLDY    69  66  90 NE3       30.06R
HASTINGS       PTCLDY    69  65  86 N3        30.07R
ORD            PTCLDY    70  64  81 CALM      30.06R
YORK           CLOUDY    68  63  83 NE6       30.05R
AURORA         MOCLDY    68  67  96 NE5       30.05R
LEXINGTON      CLEAR     66  63  89 SW3       30.09R
HOLDREGE       CLEAR     67  65  94 N3        30.08R
HEBRON         MOCLDY    73  67  82 NE7       30.02R

...NEBRASKA PANHANDLE...

CITY           SKY/WX    TMP DP  RH WIND       PRES   REMARKS
CHADRON        CLEAR     68  59  73 E8        30.13R
ALLIANCE       CLEAR     64  58  80 E3        30.15R
SCOTTSBLUFF    CLOUDY    70  61  73 E7        30.15S
SIDNEY         CLEAR     66  58  75 E9        30.19R

...WESTERN AND NORTH CENTRAL NEBRASKA...

CITY           SKY/WX    TMP DP  RH WIND       PRES   REMARKS
VALENTINE      MOCLDY    62  60  93 NE6       30.12R
AINSWORTH      LGT RAIN  63  63  99 N5        30.13R
ONEILL         LGT RAIN  69  64  86 W7        30.09R
BROKEN BOW     MOCLDY    68  66  93 N7        30.09R
IMPERIAL       CLOUDY    66  62  87 E9        30.13S
NORTH PLATTE   CLEAR     64  62  93 CALM      30.11R
MCCOOK         PTCLDY    66  61  84 N7        30.10R

...EASTERN NEBRASKA...

CITY           SKY/WX    TMP DP  RH WIND       PRES   REMARKS
NORFOLK        CLOUDY    72  61  68 NE6       30.04R
SO SIOUX CITY  CLOUDY    74  62  66 NE9       30.02R
TEKAMAH        MOCLDY    73  64  73 NE5       30.01R
COLUMBUS       CLOUDY    70  59  68 CALM      30.04R
ALBION         CLOUDY    69  64  84 CALM      30.06R
OMAHA EPPLEY   CLOUDY    75  62  64 NE7       30.01R
MILLARD        CLOUDY    76  62  61 E3        30.01R
LINCOLN        CLOUDY    73  64  73 N6        30.03R
NEBRASKA CITY  CLOUDY    73  65  75 NE7       30.01R
BEATRICE       CLOUDY    75  64  69 NE8       30.01R
FALLS CITY     MOCLDY    76  69  79 E3        29.98R

...NORTHERN KANSAS...

CITY           SKY/WX    TMP DP  RH WIND       PRES   REMARKS
GOODLAND       CLOUDY    68  59  73 NE10      30.15R
HILL CITY      MOCLDY    70  63  78 NE5       30.06R
NORTON         MOCLDY    68  63  83 N7        30.07R
SMITH CENTER   CLOUDY    68  66  94 N7        30.05R
BELOIT         MOCLDY    68  66  94 CALM      30.02R
HAYS           PTCLDY    68  57  68 CALM      30.04R
RUSSELL        CLOUDY    69  65  86 S5        30.01R
CONCORDIA      CLOUDY    69  67  93 SW5       30.02R
SALINA         CLOUDY    71  65  81 SE7       30.01R
TOPEKA         LGT RAIN  70  65  84 W7        30.02R



USA.gov is the U.S. government's official web portal to all federal, state and local government web resources and services.